Location: Capvern
(43.1036°N, 0.3160°E)
Time: 05:04:47
(UTC+00:00)

CSL-04 Debris - Pass Details

Date: 16 October 2021
Orbit: 827 x 847 km, 98.9° (Epoch: 02 December)

Event Time Altitude Azimuth Distance (km) Brightness Sun altitude
Exits shadow 19:08:38 29° 149° (SSE) 1,460 5.1 -21.6°
Maximum altitude 19:11:23 71° 73° (ENE) 877 4.0 -22.1°
Drops below altitude 10° 19:16:46 10° 350° (N) 2,446 6.8 -23.1°
Sets 19:19:09 0° 349° (NNW) 3,386 7.6 -23.5°
